When you browse on this site, cookies collect data to enhance your experience and personalize the content and advertising you see.
Visit our Privacy Policy to learn more. By continuing to use the site, you agree to this use of cookies and data.
  • In Hungary
  • List of Countries
  • For 7 days
  • Water Temperature
  • Satellite Maps
  • Weather Map
  • News
  • Weather Widgets
  • user-avatar
    Login

    Hourly Weather Mardan

    Today, 20 June, Thursday

    Time Temperature Precipitation Wind Pressure Humidity
    00:00 +34°C° 0.5 mm 2 mps 726 mmHg 36%
    01:00 +32°C° 0.5 mm 2 mps 726 mmHg 39%
    02:00 +31°C° 0.5 mm 2 mps 726 mmHg 42%
    03:00 +30°C° 0.5 mm 2 mps 726 mmHg 45%
    04:00 +29°C° 0.5 mm 2 mps 726 mmHg 48%
    05:00 +29°C° 0 mm 2 mps 726 mmHg 53%
    06:00 +30°C° 1.1 mm 1 mps 726 mmHg 51%
    07:00 +31°C° 1.1 mm 1 mps 726 mmHg 48%
    08:00 +29°C° 1.1 mm 0 mps 726 mmHg 45%
    09:00 +33°C° 0.2 mm 1 mps 727 mmHg 41%
    10:00 +35°C° 0.2 mm 1 mps 727 mmHg 38%
    11:00 +36°C° 0.2 mm 1 mps 727 mmHg 34%
    12:00 +37°C° 0 mm 1 mps 726 mmHg 32%
    13:00 +39°C° 0 mm 1 mps 726 mmHg 30%
    14:00 +40°C° 0 mm 1 mps 726 mmHg 27%
    15:00 +41°C° 0 mm 2 mps 726 mmHg 26%
    16:00 +41°C° 0 mm 2 mps 725 mmHg 25%
    17:00 +41°C° 0 mm 2 mps 725 mmHg 24%
    18:00 +38°C° 0.7 mm 3 mps 726 mmHg 31%
    19:00 +35°C° 0.7 mm 4 mps 726 mmHg 39%
    20:00 +32°C° 0.7 mm 5 mps 726 mmHg 46%
    21:00 +30°C° 0.2 mm 4 mps 727 mmHg 48%
    22:00 +30°C° 0.2 mm 3 mps 727 mmHg 49%
    23:00 +30°C° 0.2 mm 1 mps 727 mmHg 50%

    Tomorrow, 21 June, Friday

    Time Temperature Precipitation Wind Pressure Humidity
    00:00 +30°C° 0 mm 2 mps 727 mmHg 51%
    01:00 +30°C° 0 mm 2 mps 727 mmHg 51%
    02:00 +29°C° 0 mm 2 mps 727 mmHg 51%
    03:00 +29°C° 0 mm 2 mps 727 mmHg 51%
    04:00 +29°C° 0 mm 2 mps 727 mmHg 51%
    05:00 +29°C° 0 mm 1 mps 727 mmHg 51%
    06:00 +30°C° 0 mm 1 mps 727 mmHg 46%
    07:00 +31°C° 0 mm 1 mps 727 mmHg 42%
    08:00 +33°C° 0 mm 1 mps 728 mmHg 38%
    09:00 +34°C° 0 mm 1 mps 728 mmHg 34%
    10:00 +36°C° 0 mm 1 mps 728 mmHg 31%
    11:00 +37°C° 0 mm 1 mps 728 mmHg 28%
    12:00 +39°C° 0 mm 1 mps 728 mmHg 26%
    13:00 +40°C° 0 mm 1 mps 727 mmHg 24%
    14:00 +41°C° 0 mm 1 mps 727 mmHg 22%
    15:00 +41°C° 0 mm 1 mps 727 mmHg 22%
    16:00 +42°C° 0 mm 1 mps 726 mmHg 21%
    17:00 +42°C° 0 mm 1 mps 726 mmHg 20%
    18:00 +40°C° 0.2 mm 1 mps 726 mmHg 23%
    19:00 +39°C° 0.2 mm 1 mps 726 mmHg 26%
    20:00 +38°C° 0.2 mm 2 mps 726 mmHg 29%
    21:00 +37°C° 0.1 mm 2 mps 726 mmHg 30%
    22:00 +36°C° 0.1 mm 2 mps 726 mmHg 32%
    23:00 +35°C° 0.1 mm 2 mps 727 mmHg 33%

    Day after tomorrow, 22 June, Saturday

    Time Temperature Precipitation Wind Pressure Humidity
    00:00 +34°C° 0 mm 2 mps 726 mmHg 34%
    01:00 +34°C° 0 mm 2 mps 726 mmHg 35%
    02:00 +32°C° 0 mm 2 mps 726 mmHg 37%
    03:00 +32°C° 0 mm 2 mps 726 mmHg 37%
    04:00 +32°C° 0 mm 1 mps 726 mmHg 37%
    05:00 +31°C° 0 mm 1 mps 726 mmHg 37%
    06:00 +33°C° 0.1 mm 1 mps 726 mmHg 35%
    07:00 +34°C° 0.1 mm 1 mps 727 mmHg 32%
    08:00 +35°C° 0.1 mm 1 mps 727 mmHg 29%
    09:00 +37°C° 0 mm 1 mps 727 mmHg 27%
    10:00 +39°C° 0 mm 1 mps 727 mmHg 25%
    11:00 +41°C° 0 mm 1 mps 727 mmHg 23%
    12:00 +42°C° 0 mm 1 mps 727 mmHg 21%
    13:00 +43°C° 0 mm 1 mps 726 mmHg 20%
    14:00 +45°C° 0 mm 2 mps 726 mmHg 18%
    15:00 +45°C° 0 mm 2 mps 726 mmHg 18%
    16:00 +45°C° 0 mm 2 mps 725 mmHg 17%
    17:00 +45°C° 0 mm 2 mps 725 mmHg 17%
    18:00 +42°C° 0 mm 2 mps 725 mmHg 20%
    19:00 +40°C° 0 mm 3 mps 725 mmHg 24%
    20:00 +38°C° 0 mm 3 mps 725 mmHg 27%
    21:00 +37°C° 0.1 mm 3 mps 725 mmHg 30%
    22:00 +36°C° 0.1 mm 3 mps 726 mmHg 32%
    23:00 +35°C° 0.1 mm 2 mps 726 mmHg 35%

    23 June, Sunday

    Time Temperature Precipitation Wind Pressure Humidity
    00:00 +35°C° 0.1 mm 2 mps 725 mmHg 37%
    01:00 +34°C° 0.1 mm 2 mps 725 mmHg 39%
    02:00 +32°C° 0.1 mm 2 mps 725 mmHg 40%
    03:00 +32°C° 0.1 mm 2 mps 725 mmHg 41%
    04:00 +31°C° 0.1 mm 2 mps 725 mmHg 42%
    05:00 +31°C° 0.1 mm 1 mps 725 mmHg 42%
    06:00 +33°C° 0 mm 1 mps 725 mmHg 38%
    07:00 +35°C° 0 mm 2 mps 725 mmHg 34%
    08:00 +37°C° 0 mm 2 mps 726 mmHg 30%
    09:00 +38°C° 0 mm 2 mps 726 mmHg 27%
    10:00 +40°C° 0 mm 2 mps 726 mmHg 24%
    11:00 +42°C° 0 mm 2 mps 726 mmHg 21%
    12:00 +43°C° 0 mm 2 mps 725 mmHg 19%
    13:00 +44°C° 0 mm 1 mps 725 mmHg 17%
    14:00 +45°C° 0 mm 1 mps 725 mmHg 15%
    15:00 +46°C° 0 mm 2 mps 725 mmHg 15%
    16:00 +46°C° 0 mm 2 mps 724 mmHg 14%
    17:00 +46°C° 0 mm 2 mps 724 mmHg 14%
    18:00 +43°C° 0 mm 2 mps 724 mmHg 16%
    19:00 +41°C° 0 mm 2 mps 724 mmHg 19%
    20:00 +39°C° 0 mm 3 mps 725 mmHg 22%
    21:00 +39°C° 0.1 mm 3 mps 725 mmHg 24%
    22:00 +38°C° 0.1 mm 3 mps 725 mmHg 26%
    23:00 +37°C° 0.1 mm 3 mps 726 mmHg 28%

    24 June, Monday

    Time Temperature Precipitation Wind Pressure Humidity
    00:00 +36°C° 0.2 mm 3 mps 726 mmHg 30%
    01:00 +35°C° 0.2 mm 3 mps 725 mmHg 33%
    02:00 +34°C° 0.2 mm 3 mps 725 mmHg 36%
    03:00 +34°C° 0 mm 2 mps 725 mmHg 36%
    04:00 +33°C° 0 mm 1 mps 725 mmHg 37%
    05:00 +30°C° 0 mm 0 mps 725 mmHg 37%
    06:00 +33°C° 0 mm 1 mps 725 mmHg 35%
    07:00 +35°C° 0 mm 1 mps 725 mmHg 32%
    08:00 +36°C° 0 mm 1 mps 726 mmHg 29%
    09:00 +37°C° 0 mm 1 mps 726 mmHg 27%
    10:00 +40°C° 0 mm 1 mps 726 mmHg 24%
    11:00 +42°C° 0 mm 1 mps 726 mmHg 21%
    12:00 +42°C° 0 mm 1 mps 725 mmHg 20%
    13:00 +43°C° 0 mm 1 mps 725 mmHg 19%
    14:00 +45°C° 0 mm 2 mps 725 mmHg 18%
    15:00 +44°C° 0 mm 1 mps 725 mmHg 17%
    16:00 +44°C° 0 mm 1 mps 724 mmHg 16%
    17:00 +45°C° 0 mm 1 mps 724 mmHg 16%
    18:00 +43°C° 0.1 mm 1 mps 725 mmHg 17%
    19:00 +42°C° 0.1 mm 2 mps 725 mmHg 19%
    20:00 +42°C° 0.1 mm 3 mps 726 mmHg 21%
    21:00 +39°C° 0.1 mm 3 mps 726 mmHg 26%
    22:00 +37°C° 0.1 mm 3 mps 726 mmHg 30%
    23:00 +36°C° 0.1 mm 3 mps 726 mmHg 34%

    25 June, Tuesday

    Time Temperature Precipitation Wind Pressure Humidity
    00:00 +35°C° 0.1 mm 3 mps 726 mmHg 36%
    01:00 +34°C° 0.1 mm 2 mps 726 mmHg 38%
    02:00 +34°C° 0.1 mm 2 mps 725 mmHg 39%
    03:00 +32°C° 0.3 mm 2 mps 725 mmHg 42%
    04:00 +32°C° 0.3 mm 2 mps 725 mmHg 44%
    05:00 +31°C° 0.3 mm 2 mps 725 mmHg 46%
    06:00 +32°C° 0.1 mm 2 mps 725 mmHg 42%
    07:00 +34°C° 0.1 mm 1 mps 725 mmHg 39%
    08:00 +35°C° 0.1 mm 1 mps 726 mmHg 35%
    09:00 +37°C° 0 mm 1 mps 726 mmHg 31%
    10:00 +39°C° 0 mm 1 mps 726 mmHg 27%
    11:00 +41°C° 0 mm 1 mps 726 mmHg 23%
    12:00 +42°C° 0 mm 1 mps 725 mmHg 22%
    13:00 +43°C° 0 mm 2 mps 725 mmHg 20%
    14:00 +45°C° 0 mm 2 mps 724 mmHg 19%
    15:00 +45°C° 0 mm 2 mps 724 mmHg 18%
    16:00 +45°C° 0 mm 2 mps 724 mmHg 17%
    17:00 +45°C° 0 mm 2 mps 724 mmHg 16%
    18:00 +43°C° 0.1 mm 2 mps 724 mmHg 19%
    19:00 +42°C° 0.1 mm 3 mps 724 mmHg 22%
    20:00 +39°C° 0.1 mm 3 mps 724 mmHg 25%
    21:00 +38°C° 0.1 mm 3 mps 724 mmHg 28%
    22:00 +37°C° 0.1 mm 4 mps 724 mmHg 31%
    23:00 +36°C° 0.1 mm 4 mps 725 mmHg 34%
    Show more